ProjectID,Date,Electric Generation,Electric Utility Import,Facility Electric Load
,YYYY-MM-DD,kW,kW,kW
21,2006-09-28,4.243125,0.0,4.243125
21,2006-09-29,103.82341666666667,97.22916666666667,201.05258333333336
21,2006-09-30,102.36500000000001,96.45833333333333,198.82333333333332
21,2006-10-01,102.776875,113.85416666666667,216.63104166666668
21,2006-10-02,103.96708333333333,88.9375,192.90458333333333
21,2006-10-03,103.39833333333333,112.95833333333333,216.35666666666665
21,2006-10-04,102.03929166666667,151.22916666666666,253.26845833333334
21,2006-10-05,104.42604166666666,108.79166666666667,213.21770833333335
21,2006-10-06,105.68187499999999,90.35416666666667,196.03604166666668
21,2006-10-07,104.55458333333333,95.54166666666667,200.09625
21,2006-10-08,104.22404166666666,99.22916666666667,203.45320833333335
21,2006-10-09,103.47266666666667,117.52083333333333,220.99349999999998
21,2006-10-10,102.6395,113.875,216.5145
21,2006-10-11,102.09945833333335,103.1875,205.28695833333336
21,2006-10-12,99.34054166666665,101.8125,201.15304166666664
21,2006-10-13,101.22045833333334,89.39583333333333,190.61629166666665
21,2006-10-14,102.72441666666667,102.02083333333333,204.74525
21,2006-10-15,102.77154166666666,109.52083333333333,212.292375
21,2006-10-16,102.84837499999999,91.52083333333333,194.36920833333332
21,2006-10-17,101.29954166666666,103.64583333333333,204.94537499999998
21,2006-10-18,100.23470833333333,98.3125,198.54720833333334
21,2006-10-19,100.63233333333334,96.72916666666667,197.3615
21,2006-10-20,99.43241666666667,105.83333333333333,205.26575
21,2006-10-21,101.16841666666666,103.04166666666667,204.21008333333333
21,2006-10-22,101.147125,116.375,217.52212500000002
21,2006-10-23,101.56091666666667,105.875,207.43591666666669
21,2006-10-24,101.44704166666666,103.02083333333333,204.467875
21,2006-10-25,100.44766666666668,104.25,204.6976666666667
21,2006-10-26,100.25754166666667,106.66666666666667,206.92420833333335
21,2006-10-27,100.74383333333333,110.33333333333333,211.07716666666664
21,2006-10-28,98.49729166666667,115.625,214.12229166666668
21,2006-10-29,100.78958333333333,123.41666666666667,224.20625
21,2006-10-30,101.08854166666667,104.8125,205.90104166666669
21,2006-10-31,101.29575,97.79166666666667,199.08741666666668
21,2006-11-01,101.2695,91.35416666666667,192.62366666666668
21,2006-11-02,102.86604166666666,101.875,204.74104166666666
21,2006-11-03,103.59941666666667,108.1875,211.78691666666668
21,2006-11-04,104.41304166666667,124.54166666666667,228.95470833333334
21,2006-11-05,103.18941666666666,129.625,232.81441666666666
21,2006-11-06,101.08283333333333,98.39583333333333,199.47866666666664
21,2006-11-07,99.13520833333332,105.125,204.2602083333333
21,2006-11-08,97.11233333333332,112.91666666666667,210.029
21,2006-11-09,96.6305,99.33333333333333,195.96383333333333
21,2006-11-10,98.61058333333334,95.70833333333333,194.31891666666667
21,2006-11-11,97.72570833333333,110.22916666666667,207.95487500000002
21,2006-11-12,96.48895833333334,128.64583333333334,225.13479166666667
21,2006-11-13,95.89804166666666,114.4375,210.33554166666664
21,2006-11-14,97.29379166666666,107.66666666666667,204.96045833333335
21,2006-11-15,97.95425,105.16666666666667,203.1209166666667
21,2006-11-16,93.86291666666666,109.125,202.98791666666665
21,2006-11-17,96.46716666666667,99.02083333333333,195.488
21,2006-11-18,96.92895833333334,122.625,219.55395833333336
21,2006-11-19,96.86129166666666,125.25,222.11129166666666
21,2006-11-20,98.31604166666666,116.77083333333333,215.086875
21,2006-11-21,99.23316666666666,114.29166666666667,213.52483333333333
21,2006-11-22,98.40058333333333,130.02083333333334,228.4214166666667
21,2006-11-23,96.78045833333334,138.89583333333334,235.67629166666669
21,2006-11-24,97.09875,125.89583333333333,222.9945833333333
21,2006-11-25,98.23141666666668,123.47916666666667,221.71058333333335
21,2006-11-26,97.04075,132.04166666666666,229.08241666666666
21,2006-11-27,96.14524999999999,113.77083333333333,209.91608333333332
21,2006-11-28,95.36291666666666,115.33333333333333,210.69625
21,2006-11-29,94.00125000000001,116.77083333333333,210.77208333333334
21,2006-11-30,96.35429166666667,109.35416666666667,205.70845833333334
21,2006-12-01,94.95545833333334,119.16666666666667,214.122125
21,2006-12-02,99.23766666666667,125.25,224.48766666666666
21,2006-12-03,100.036625,142.45833333333334,242.49495833333333
21,2006-12-04,99.18433333333333,129.10416666666666,228.2885
21,2006-12-05,100.23645833333335,131.14583333333334,231.38229166666667
21,2006-12-06,98.65170833333333,129.52083333333334,228.1725416666667
21,2006-12-07,96.98608333333334,133.25,230.23608333333334
21,2006-12-08,99.92716666666666,151.72916666666666,251.65633333333332
21,2006-12-09,99.18583333333333,152.41666666666666,251.6025
21,2006-12-10,96.87295833333333,152.33333333333334,249.2062916666667
21,2006-12-11,94.97741666666667,127.47916666666667,222.45658333333336
21,2006-12-12,93.49420833333333,135.41666666666666,228.91087499999998
21,2006-12-13,89.40845833333333,145.72916666666666,235.13762499999999
21,2006-12-14,88.67758333333335,133.125,221.80258333333336
21,2006-12-15,87.281625,142.64583333333334,229.92745833333333
21,2006-12-16,90.62512500000001,148.375,239.00012500000003
21,2006-12-17,89.66320833333333,147.29166666666666,236.954875
21,2006-12-18,92.69820833333334,138.10416666666666,230.80237499999998
21,2006-12-19,97.606125,141.4375,239.04362500000002
21,2006-12-20,98.33395833333333,139.75,238.08395833333333
21,2006-12-21,98.11529166666666,139.64583333333334,237.761125
21,2006-12-22,97.52616666666667,151.0625,248.58866666666665
21,2006-12-23,95.11695833333333,149.83333333333334,244.95029166666666
21,2006-12-24,95.44141666666667,148.66666666666666,244.10808333333333
21,2006-12-25,95.45662499999999,155.14583333333334,250.60245833333335
21,2006-12-26,94.79204166666666,150.14583333333334,244.93787500000002
21,2006-12-27,96.54066666666667,151.04166666666666,247.58233333333334
21,2006-12-28,97.949125,143.60416666666666,241.55329166666667
21,2006-12-29,98.56,138.1875,236.7475
21,2006-12-30,98.04333333333334,154.45833333333334,252.50166666666667
21,2006-12-31,97.56983333333334,156.52083333333334,254.09066666666666
21,2007-01-01,96.47795833333333,157.875,254.35295833333333
21,2007-01-02,98.00462499999999,135.89583333333334,233.90045833333335
21,2007-01-03,97.91083333333334,131.08333333333334,228.99416666666667
21,2007-01-04,97.41791666666667,124.9375,222.35541666666666
21,2007-01-05,94.944375,120.16666666666667,215.11104166666667
21,2007-01-06,95.9785,119.0,214.9785
21,2007-01-07,96.52116666666666,131.79166666666666,228.31283333333332
21,2007-01-08,95.00683333333335,129.5,224.50683333333336
21,2007-01-09,95.311875,130.25,225.561875
21,2007-01-10,96.06,129.35416666666666,225.41416666666666
21,2007-01-11,97.37383333333334,127.91666666666667,225.2905
21,2007-01-12,100.92304166666666,123.0625,223.98554166666668
21,2007-01-13,99.45566666666667,138.64583333333334,238.10150000000002
21,2007-01-14,99.13720833333333,139.375,238.51220833333332
21,2007-01-15,96.29995833333334,141.45833333333334,237.75829166666668
21,2007-01-16,96.14108333333333,134.875,231.0160833333333
21,2007-01-17,103.457375,131.0625,234.519875
21,2007-01-18,102.95283333333333,119.91666666666667,222.86950000000002
21,2007-01-19,99.1015,121.20833333333333,220.30983333333333
21,2007-01-20,98.514875,145.0,243.51487500000002
21,2007-01-21,98.85583333333334,151.22916666666666,250.08499999999998
21,2007-01-22,95.57545833333334,139.72916666666666,235.304625
21,2007-01-23,97.07633333333332,130.47916666666666,227.5555
21,2007-01-24,97.86475,125.75,223.61475000000002
21,2007-01-25,97.70870833333333,121.875,219.58370833333333
21,2007-01-26,100.525875,132.52083333333334,233.04670833333336
21,2007-01-27,101.20266666666667,131.79166666666666,232.99433333333332
21,2007-01-28,101.63266666666668,125.33333333333333,226.966
21,2007-01-29,103.76704166666667,127.22916666666667,230.99620833333336
21,2007-01-30,103.31349999999999,123.02083333333333,226.33433333333332
21,2007-01-31,99.69270833333333,112.02083333333333,211.71354166666666
21,2007-02-01,97.69920833333333,107.375,205.07420833333333
21,2007-02-02,95.47345833333333,108.875,204.34845833333333
21,2007-02-03,96.93354166666667,117.375,214.30854166666666
21,2007-02-04,97.70204166666667,137.45833333333334,235.16037500000002
21,2007-02-05,101.05108333333334,122.75,223.80108333333334
21,2007-02-06,101.76683333333334,117.8125,219.57933333333335
21,2007-02-07,101.06620833333334,115.39583333333333,216.46204166666666
21,2007-02-08,101.30016666666667,54.125,155.42516666666666
21,2007-02-09,101.085125,0.0,101.085125
21,2007-02-10,100.49866666666667,0.0,100.49866666666667
21,2007-02-11,100.92625,0.0,100.92625
21,2007-02-12,99.82549999999999,0.0,99.82549999999999
21,2007-02-13,100.8685,0.0,100.8685
21,2007-02-14,98.44520833333333,0.0,98.44520833333333
21,2007-02-15,99.98216666666667,0.0,99.98216666666667
21,2007-02-16,100.24216666666666,0.0,100.24216666666666
21,2007-02-17,99.41995833333334,0.0,99.41995833333334
21,2007-02-18,97.68708333333332,0.0,97.68708333333332
21,2007-02-19,99.86979166666667,0.0,99.86979166666667
21,2007-02-20,95.863375,0.0,95.863375
21,2007-02-21,98.14404166666667,0.0,98.14404166666667
21,2007-02-22,98.08620833333333,0.0,98.08620833333333
21,2007-02-23,96.43020833333333,0.0,96.43020833333333
21,2007-02-24,96.38,0.0,96.38
21,2007-02-25,96.38,0.0,96.38
21,2007-02-26,96.38,0.0,96.38
21,2007-02-27,96.38,0.0,96.38
21,2007-02-28,96.38,0.0,96.38
21,2007-03-01,96.38,0.0,96.38
21,2007-03-02,96.38,0.0,96.38
21,2007-03-03,96.38,0.0,96.38
21,2007-03-04,96.38,0.0,96.38
21,2007-03-05,96.38,0.0,96.38
21,2007-03-06,96.38,0.0,96.38
21,2007-03-07,96.38,0.0,96.38
21,2007-03-08,96.38,0.0,96.38
21,2007-03-09,96.38,0.0,96.38
21,2007-03-10,96.38,0.0,96.38
21,2007-03-11,96.38,0.0,96.38
21,2007-03-12,96.38,0.0,96.38
21,2007-03-13,96.38,0.0,96.38
21,2007-03-14,96.38,0.0,96.38
21,2007-03-15,96.38,0.0,96.38
21,2007-03-16,96.38,0.0,96.38
21,2007-03-17,96.38,0.0,96.38
21,2007-03-18,96.38,0.0,96.38
21,2007-03-19,96.38,0.0,96.38
21,2007-03-20,96.38,0.0,96.38
21,2007-03-21,96.38,0.0,96.38
21,2007-03-22,96.38,0.0,96.38
21,2007-03-23,96.38,0.0,96.38
21,2007-03-24,96.38,0.0,96.38
21,2007-03-25,96.38,0.0,96.38
21,2007-03-26,96.38,0.0,96.38
21,2007-03-27,96.38,0.0,96.38
21,2007-03-28,96.38,0.0,96.38
21,2007-03-29,96.38,0.0,96.38
21,2007-03-30,96.38,0.0,96.38
21,2007-03-31,96.38,0.0,96.38
21,2007-04-01,96.38,0.0,96.38
21,2007-04-02,96.38,0.0,96.38
21,2007-04-03,96.38,0.0,96.38
21,2007-04-04,96.38,0.0,96.38
21,2007-04-05,96.38,0.0,96.38
21,2007-04-06,96.38,0.0,96.38
21,2007-04-07,96.38,0.0,96.38
21,2007-04-08,96.38,0.0,96.38
21,2007-04-09,96.38,0.0,96.38
21,2007-04-10,96.38,0.0,96.38
21,2007-04-11,96.38,0.0,96.38
21,2007-04-12,96.38,0.0,96.38
21,2007-04-13,96.38,0.0,96.38
21,2007-04-14,96.38,0.0,96.38
21,2007-04-15,96.38,0.0,96.38
21,2007-04-16,96.38,0.0,96.38
21,2007-04-17,96.38,0.0,96.38
21,2007-04-18,96.38,0.0,96.38
21,2007-04-19,96.38,0.0,96.38
21,2007-04-20,96.38,0.0,96.38
21,2007-04-21,96.38,0.0,96.38
21,2007-04-22,96.50458333333334,0.0,96.50458333333334
21,2007-04-23,99.37,0.0,99.37
21,2007-04-24,99.16666666666667,0.0,99.16666666666667
21,2007-04-25,94.656875,0.0,94.656875
21,2007-04-26,98.18208333333332,0.0,98.18208333333332
21,2007-04-27,96.31895833333334,0.0,96.31895833333334
21,2007-04-28,95.60112500000001,0.0,95.60112500000001
21,2007-04-29,95.35991666666666,0.0,95.35991666666666
21,2007-04-30,96.2765,0.0,96.2765
21,2007-05-01,37.62254166666667,0.0,37.62254166666667
21,2007-05-02,56.79720833333334,0.0,56.79720833333334
21,2007-05-03,100.70400000000001,0.0,100.70400000000001
21,2007-05-04,100.20829166666665,0.0,100.20829166666665
21,2007-05-05,98.87483333333334,0.0,98.87483333333334
21,2007-05-06,97.34491666666666,0.0,97.34491666666666
21,2007-05-07,99.19470833333332,0.0,99.19470833333332
21,2007-05-08,101.05479166666667,0.0,101.05479166666667
21,2007-05-09,97.74720833333333,0.0,97.74720833333333
21,2007-05-10,98.00741666666666,0.0,98.00741666666666
21,2007-05-11,97.22554166666667,0.0,97.22554166666667
21,2007-05-12,97.78154166666667,0.0,97.78154166666667
21,2007-05-13,98.55104166666666,0.0,98.55104166666666
21,2007-05-14,100.05895833333334,0.0,100.05895833333334
21,2007-05-15,98.24016666666667,0.0,98.24016666666667
21,2007-05-16,97.06341666666667,0.0,97.06341666666667
21,2007-05-17,98.79770833333333,0.0,98.79770833333333
21,2007-05-18,98.835375,0.0,98.835375
21,2007-05-19,59.85145833333333,0.0,59.85145833333333
21,2007-05-20,45.49270833333333,0.0,45.49270833333333
21,2007-05-21,46.00266666666667,0.0,46.00266666666667
21,2007-05-22,73.42916666666666,0.0,73.42916666666666
21,2007-05-23,97.25425,0.0,97.25425
21,2007-05-24,97.57225,0.0,97.57225
21,2007-05-25,98.61358333333334,0.0,98.61358333333334
21,2007-05-26,96.97491666666667,0.0,96.97491666666667
21,2007-05-27,96.42891666666667,0.0,96.42891666666667
21,2007-05-28,96.56108333333333,0.0,96.56108333333333
21,2007-05-29,98.14416666666666,0.0,98.14416666666666
21,2007-05-30,94.60266666666666,0.0,94.60266666666666
21,2007-05-31,99.26604166666668,0.0,99.26604166666668
21,2007-06-01,99.03949999999999,0.0,99.03949999999999
21,2007-06-02,97.87033333333333,0.0,97.87033333333333
21,2007-06-03,98.086875,0.0,98.086875
21,2007-06-04,97.73870833333332,0.0,97.73870833333332
21,2007-06-05,97.52841666666666,0.0,97.52841666666666
21,2007-06-06,99.65795833333334,0.0,99.65795833333334
21,2007-06-07,100.02454166666666,0.0,100.02454166666666
21,2007-06-08,98.46591666666666,0.0,98.46591666666666
21,2007-06-09,98.377,0.0,98.377
21,2007-06-10,99.21908333333333,0.0,99.21908333333333
21,2007-06-11,98.53229166666667,0.0,98.53229166666667
21,2007-06-12,97.982625,0.0,97.982625
21,2007-06-13,98.48645833333335,0.0,98.48645833333335
21,2007-06-14,102.17841666666668,0.0,102.17841666666668
21,2007-06-15,101.2795,0.0,101.2795
21,2007-06-16,100.76525,0.0,100.76525
21,2007-06-17,99.92279166666667,0.0,99.92279166666667
21,2007-06-18,100.73129166666666,0.0,100.73129166666666
21,2007-06-19,100.62504166666668,0.0,100.62504166666668
21,2007-06-20,100.68091666666668,0.0,100.68091666666668
21,2007-06-21,101.062,0.0,101.062
21,2007-06-22,99.24216666666666,0.0,99.24216666666666
21,2007-06-23,99.24362500000001,0.0,99.24362500000001
21,2007-06-24,99.61420833333334,0.0,99.61420833333334
21,2007-06-25,99.342,0.0,99.342
21,2007-06-26,98.135125,0.0,98.135125
21,2007-06-27,97.10741666666667,0.0,97.10741666666667
21,2007-06-28,97.28783333333332,0.0,97.28783333333332
21,2007-06-29,25.443708333333333,0.0,25.443708333333333
21,2007-06-30,0.02775,0.0,0.02775
21,2007-07-01,0.015458333333333333,0.0,0.015458333333333333
21,2007-07-02,0.0,0.0,0.0
21,2007-07-03,0.03333333333333333,0.0,0.03333333333333333
21,2007-07-04,0.12295833333333334,0.0,0.12295833333333334
21,2007-07-05,0.17337499999999997,0.0,0.17337499999999997
21,2007-07-06,0.100125,0.0,0.100125
21,2007-07-07,0.05533333333333334,0.0,0.05533333333333334
21,2007-07-08,0.10866666666666668,0.0,0.10866666666666668
21,2007-07-09,0.10683333333333334,0.0,0.10683333333333334
21,2007-07-10,0.03745833333333334,0.0,0.03745833333333334
21,2007-07-11,60.71170833333333,0.0,60.71170833333333
21,2007-07-12,53.548541666666665,0.0,53.548541666666665
21,2007-07-13,0.10133333333333333,0.0,0.10133333333333333
21,2007-07-14,0.07229166666666667,0.0,0.07229166666666667
21,2007-07-15,0.06675,0.0,0.06675
21,2007-07-16,26.109125000000002,0.0,26.109125000000002
21,2007-07-17,100.01983333333334,0.0,100.01983333333334
21,2007-07-18,99.28320833333333,0.0,99.28320833333333
21,2007-07-19,98.79108333333333,0.0,98.79108333333333
21,2007-07-20,99.48883333333333,0.0,99.48883333333333
21,2007-07-21,100.35083333333334,0.0,100.35083333333334
21,2007-07-22,99.68320833333333,0.0,99.68320833333333
21,2007-07-23,98.32333333333334,0.0,98.32333333333334
21,2007-07-24,98.818625,0.0,98.818625
21,2007-07-25,98.47116666666666,0.0,98.47116666666666
21,2007-07-26,98.532,0.0,98.532
21,2007-07-27,96.121375,0.0,96.121375
21,2007-07-28,95.797375,0.0,95.797375
21,2007-07-29,95.989875,0.0,95.989875
21,2007-07-30,96.07683333333334,0.0,96.07683333333334
21,2007-07-31,90.49933333333333,0.0,90.49933333333333
21,2007-08-01,94.19229166666666,0.0,94.19229166666666
21,2007-08-02,93.88279166666666,0.0,93.88279166666666
21,2007-08-03,94.44620833333333,0.0,94.44620833333333
21,2007-08-04,80.61916666666666,0.0,80.61916666666666
21,2007-08-05,0.0,0.0,0.0
21,2007-08-06,48.760875,0.0,48.760875
21,2007-08-07,93.90495833333334,0.0,93.90495833333334
21,2007-08-08,92.58795833333333,0.0,92.58795833333333
21,2007-08-09,93.44991666666665,0.0,93.44991666666665
21,2007-08-10,96.00908333333332,0.0,96.00908333333332
21,2007-08-11,96.63479166666667,0.0,96.63479166666667
21,2007-08-12,94.25920833333333,0.0,94.25920833333333
21,2007-08-13,94.03220833333334,0.0,94.03220833333334
21,2007-08-14,95.36220833333334,0.0,95.36220833333334
21,2007-08-15,95.22545833333334,0.0,95.22545833333334
21,2007-08-16,94.066375,0.0,94.066375
21,2007-08-17,94.63495833333333,0.0,94.63495833333333
21,2007-08-18,97.03758333333333,0.0,97.03758333333333
21,2007-08-19,96.30370833333335,0.0,96.30370833333335
21,2007-08-20,95.81045833333333,0.0,95.81045833333333
21,2007-08-21,96.352125,0.0,96.352125
21,2007-08-22,96.25175,0.0,96.25175
21,2007-08-23,95.37845833333334,0.0,95.37845833333334
21,2007-08-24,94.09279166666666,0.0,94.09279166666666
21,2007-08-25,92.71429166666667,0.0,92.71429166666667
21,2007-08-26,93.94266666666665,0.0,93.94266666666665
21,2007-08-27,95.76370833333334,0.0,95.76370833333334
21,2007-08-28,95.78245833333334,0.0,95.78245833333334
21,2007-08-29,95.69104166666666,0.0,95.69104166666666
21,2007-08-30,91.34483333333333,0.0,91.34483333333333
21,2007-08-31,1.9427916666666667,0.0,1.9427916666666667
21,2007-09-01,46.111583333333336,0.0,46.111583333333336
21,2007-09-02,45.97654166666666,0.0,45.97654166666666
21,2007-09-03,44.83566666666667,0.0,44.83566666666667
21,2007-09-04,81.18079166666666,0.0,81.18079166666666
21,2007-09-05,95.95100000000001,0.0,95.95100000000001
21,2007-09-06,38.1815,0.0,38.1815
21,2007-09-07,0.11116666666666668,0.0,0.11116666666666668
21,2007-09-08,0.16479166666666667,0.0,0.16479166666666667
21,2007-09-09,0.15220833333333333,0.0,0.15220833333333333
21,2007-09-10,64.46116666666667,0.0,64.46116666666667
21,2007-09-11,91.27858333333334,0.0,91.27858333333334
21,2007-09-12,96.88791666666667,0.0,96.88791666666667
21,2007-09-13,95.59033333333333,0.0,95.59033333333333
21,2007-09-14,94.04358333333333,0.0,94.04358333333333
21,2007-09-15,95.17120833333333,0.0,95.17120833333333
21,2007-09-16,96.503625,0.0,96.503625
21,2007-09-17,97.29329166666668,0.0,97.29329166666668
21,2007-09-18,91.13629166666668,0.0,91.13629166666668
21,2007-09-19,93.48529166666667,0.0,93.48529166666667
21,2007-09-20,89.74595833333332,0.0,89.74595833333332
21,2007-09-21,90.55466666666666,0.0,90.55466666666666
21,2007-09-22,88.16604166666667,0.0,88.16604166666667
21,2007-09-23,89.38129166666666,0.0,89.38129166666666
21,2007-09-24,73.42870833333333,0.0,73.42870833333333
21,2007-09-25,73.4095,0.0,73.4095
21,2007-09-26,87.44625,0.0,87.44625
21,2007-09-27,59.926291666666664,0.0,59.926291666666664
21,2007-09-28,0.0,0.0,0.0
21,2007-09-29,0.0,0.0,0.0
21,2007-09-30,0.0,0.0,0.0
21,2007-10-01,0.9770833333333333,0.0,0.9770833333333333
21,2007-10-02,44.21175,0.0,44.21175
21,2007-10-03,86.568375,0.0,86.568375
21,2007-10-04,86.31675,0.0,86.31675
21,2007-10-05,86.56895833333334,0.0,86.56895833333334
21,2007-10-06,85.86341666666668,0.0,85.86341666666668
21,2007-10-07,85.01004166666667,0.0,85.01004166666667
21,2007-10-08,84.29316666666666,0.0,84.29316666666666
21,2007-10-09,83.85595833333333,0.0,83.85595833333333
21,2007-10-10,83.55379166666667,0.0,83.55379166666667
21,2007-10-11,83.20891666666667,34.0,117.20891666666667
21,2007-10-12,84.49504166666667,71.4375,155.93254166666668
21,2007-10-13,87.25895833333334,69.60416666666667,156.86312500000003
21,2007-10-14,86.81108333333333,70.8125,157.62358333333333
21,2007-10-15,82.69254166666667,70.8125,153.50504166666667
21,2007-10-16,78.186125,74.04166666666667,152.2277916666667
21,2007-10-17,76.38091666666666,75.85416666666667,152.23508333333334
21,2007-10-18,71.28525,85.39583333333333,156.68108333333333
21,2007-10-19,74.58479166666667,92.22916666666667,166.81395833333335
21,2007-10-20,76.36291666666666,83.75,160.11291666666665
21,2007-10-21,76.90804166666666,80.97916666666667,157.88720833333332
21,2007-10-22,74.45383333333334,82.02083333333333,156.47466666666668
21,2007-10-23,75.40066666666667,83.5625,158.96316666666667
21,2007-10-24,59.97020833333334,97.89583333333333,157.86604166666666
21,2007-10-25,78.30304166666666,73.39583333333333,151.698875
21,2007-10-26,77.72125,74.83333333333333,152.5545833333333
21,2007-10-27,75.81908333333332,79.5,155.3190833333333
21,2007-10-28,78.47087499999999,74.125,152.59587499999998
21,2007-10-29,79.55383333333333,73.64583333333333,153.19966666666664
21,2007-10-30,78.33841666666667,72.25,150.58841666666666
21,2007-10-31,76.57275,72.95833333333333,149.53108333333333
21,2007-11-01,76.53725,73.60416666666667,150.14141666666666
21,2007-11-02,77.80866666666667,74.97916666666667,152.78783333333334
21,2007-11-03,76.829375,81.79166666666667,158.62104166666666
21,2007-11-04,77.09008333333334,80.95833333333333,158.04841666666667
21,2007-11-05,77.00666666666667,75.29166666666667,152.29833333333335
21,2007-11-06,76.341,80.04166666666667,156.38266666666667
21,2007-11-07,77.28716666666666,77.16666666666667,154.45383333333334
21,2007-11-08,77.85000000000001,76.54166666666667,154.39166666666668
21,2007-11-09,77.41979166666667,79.85416666666667,157.27395833333333
21,2007-11-10,77.09870833333333,80.97916666666667,158.077875
21,2007-11-11,78.116625,79.04166666666667,157.15829166666668
21,2007-11-12,76.52054166666666,78.77083333333333,155.291375
21,2007-11-13,75.65254166666666,72.08333333333333,147.735875
21,2007-11-14,71.19145833333333,74.3125,145.50395833333334
21,2007-11-15,64.11633333333333,73.6875,137.80383333333333
21,2007-11-16,75.97879166666667,75.6875,151.66629166666667
21,2007-11-17,75.76329166666666,79.20833333333333,154.971625
21,2007-11-18,76.32175,82.6875,159.00925
21,2007-11-19,77.06554166666668,77.10416666666667,154.16970833333335
21,2007-11-20,48.49391666666667,74.10416666666667,122.59808333333334
21,2007-11-21,75.06779166666666,78.375,153.44279166666666
21,2007-11-22,43.60104166666667,73.66666666666667,117.26770833333333
21,2007-11-23,44.424708333333335,70.375,114.79970833333334
21,2007-11-24,28.176708333333334,83.83333333333333,112.01004166666667
21,2007-11-25,28.424291666666665,71.91666666666667,100.34095833333333
21,2007-11-26,24.475375,79.39583333333333,103.87120833333333
21,2007-11-27,20.283666666666665,100.52083333333333,120.80449999999999
21,2007-11-28,29.3415,76.3125,105.654
21,2007-11-29,59.275749999999995,74.20833333333333,133.48408333333333
21,2007-11-30,95.17475,66.35416666666667,161.52891666666667
21,2007-12-01,96.87316666666668,73.3125,170.1856666666667
21,2007-12-02,97.70675,77.89583333333333,175.6025833333333
21,2007-12-03,95.59054166666665,73.375,168.96554166666664
21,2007-12-04,88.401125,73.04166666666667,161.44279166666666
21,2007-12-05,96.34025000000001,72.47916666666667,168.81941666666668
21,2007-12-06,97.691125,70.14583333333333,167.8369583333333
21,2007-12-07,97.68008333333334,72.02083333333333,169.70091666666667
21,2007-12-08,97.106,75.72916666666667,172.83516666666668
21,2007-12-09,97.18395833333334,78.6875,175.87145833333335
21,2007-12-10,95.38725,73.89583333333333,169.2830833333333
21,2007-12-11,93.32691666666666,73.66666666666667,166.99358333333333